Flag for Slovakia Weather past 2 weeks in Prešov, Slovakia

Now
64 °F

Clear.


Feels Like: 64 °F
Forecast: 58 / 77 °F
Wind: 14 mph from North

Location: Kosice - Barca

Current Time: Sep 3, 2015 at 2:06:03 AM

Latest Report: Sep 3, 2015 at 1:30 AM


Visibility: 10 mi

Pressure: 29.92 "Hg

Humidity: 73%

Dew point: 55 °F

Location of PrešovLocation

Historic Weather in Prešov — Graph

°F

Prešov temperature yesterday

Maximum temperature yesterday: 90 °F (at 2:00 PM)
Minimum temperature yesterday: 59 °F (at 5:00 AM)
Average temperature yesterday: 73 °F

Past Weeks' High & Low Weather Summary

 TemperatureHumidityPressure
High93 °F (Aug 30, 2:30 PM)94% (Aug 19, 10:30 PM)30.24 "Hg (Aug 19, 10:30 PM)
Low52 °F (Aug 21, 4:00 AM)26% (Sep 2, 2:00 PM)29.80 "Hg (Sep 1, 7:00 PM)
Average71 °F60%30.07 "Hg
* Reported Aug 19 1:00 AM — Sep 3 1:00 AM, Prešov, Weather by CustomWeather, © 2015

Note: Actual official high and low records may vary slightly from our data, if they occured in-between our weather recording intervals... More about our weather records

Advertising

Prešov weather history for previous 24 hours

 ConditionsComfort  
Time TempWeatherWind HumidityBarometerVisibility
1:00 AM
Thu, Sep 3
66 °FClear.15 mph68%29.92 "Hg10 mi
12:00 AM66 °FClear.17 mph68%29.92 "Hg10 mi
11:30 PM
Wed, Sep 2
66 °FClear.16 mph68%29.92 "Hg10 mi
11:00 PM66 °FClear.16 mph68%29.92 "Hg10 mi
10:30 PM66 °FClear.16 mph73%29.92 "Hg10 mi
10:00 PM66 °FClear.18 mph68%29.92 "Hg10 mi
9:30 PM66 °FClear.21 mph68%29.92 "Hg10 mi
9:00 PM66 °FClear.21 mph73%29.92 "Hg10 mi
8:30 PM66 °FClear.23 mph73%29.92 "Hg10 mi
8:00 PM68 °FSunny.23 mph69%29.89 "Hg10 mi
7:30 PM68 °FSunny.24 mph69%29.89 "Hg10 mi
7:00 PM70 °FSunny.22 mph64%29.86 "Hg10 mi
6:30 PM72 °FSunny.24 mph61%29.86 "Hg10 mi
6:00 PM75 °FSunny.22 mph57%29.86 "Hg10 mi
5:30 PM77 °FSunny.21 mph54%29.83 "Hg10 mi
5:00 PM81 °FSunny.20 mph51%29.83 "Hg10 mi
4:30 PM82 °FSunny.17 mph48%29.83 "Hg10 mi
4:00 PM84 °FSunny.13 mph45%29.83 "Hg10 mi
3:30 PM90 °FPassing clouds.8 mph29%29.83 "HgN/A
3:00 PM90 °FPassing clouds.6 mph27%29.83 "HgN/A
2:30 PM88 °FPassing clouds.7 mph31%29.83 "HgN/A
2:00 PM90 °FPassing clouds.7 mph26%29.86 "HgN/A
1:30 PM88 °FPassing clouds.9 mph29%29.86 "HgN/A
1:00 PM88 °FSunny.5 mph29%29.86 "Hg10 mi
12:30 PM88 °FSunny.5 mph31%29.86 "Hg10 mi
12:00 PM86 °FPassing clouds.7 mph35%29.86 "HgN/A
11:30 AM84 °FPassing clouds.9 mph37%29.86 "HgN/A
11:00 AM82 °FSunny.10 mph40%29.86 "Hg10 mi
10:30 AM82 °FSunny.13 mph40%29.86 "Hg10 mi
10:00 AM81 °FSunny.13 mph39%29.86 "Hg10 mi
9:30 AM79 °FSunny.7 mph45%29.86 "Hg10 mi
9:00 AM77 °FSunny.7 mph51%29.86 "Hg10 mi
8:30 AM73 °FPassing clouds.5 mph57%29.86 "HgN/A
8:00 AM70 °FSunny.3 mph60%29.86 "Hg10 mi
7:30 AM68 °FSunny.2 mph64%29.83 "Hg10 mi
7:00 AM64 °FPassing clouds.5 mph73%29.83 "HgN/A
6:00 AM63 °FClear.5 mph73%29.83 "Hg10 mi
5:30 AM59 °FClear.1 mph82%29.83 "Hg10 mi
5:00 AM59 °FClear.1 mph82%29.83 "Hg10 mi
4:30 AM64 °FClear.2 mph73%29.83 "Hg10 mi
4:00 AM63 °FClear.3 mph77%29.83 "Hg10 mi
3:30 AM63 °FClear.2 mph83%29.83 "Hg10 mi
3:00 AM63 °FClear.3 mph83%29.83 "Hg10 mi
2:30 AM64 °FClear.2 mph78%29.83 "Hg10 mi
2:00 AM66 °FClear.2 mph78%29.83 "Hg10 mi
Weather by CustomWeather, © 2015

See weather overviewHow to use our weather pages